Flag for Portugal Weather past 2 weeks in Cascais, Portugal

63 °F

Passing clouds.

Feels Like: 63 °F
Forecast: 61 / 71 °F
Wind: 12 mph from Northwest

Location: Lisbon Portela Airport

Current Time: Oct 8, 2015 at 8:05:49 PM

Latest Report: Oct 8, 2015 at 7:30 PM

Visibility: N/A

Pressure: 29.98 "Hg

Humidity: 73%

Dew point: 54 °F

Location of CascaisLocation

Historic Weather in Cascais — Graph


Cascais temperature yesterday

Maximum temperature yesterday: 70 °F (at 2:30 PM)
Minimum temperature yesterday: 59 °F (at 7:00 AM)
Average temperature yesterday: 63 °F

Past Weeks' High & Low Weather Summary

High88 °F (Sep 27, 4:00 PM)100% (Oct 5, 6:00 PM)30.21 "Hg (Oct 5, 6:00 PM)
Low57 °F (Sep 27, 7:00 AM)26% (Sep 28, 3:30 PM)29.89 "Hg (Oct 5, 3:30 PM)
Average68 °F72%30.03 "Hg
* Reported Sep 23 7:00 PM — Oct 8 7:00 PM, Cascais, Weather by CustomWeather, © 2015

Note: Actual official high and low records may vary slightly from our data, if they occured in-between our weather recording intervals... More about our weather records


Cascais weather history for previous 24 hours

Time TempWeatherWind HumidityBarometerVisibility
7:00 PM
Thu, Oct 8
64 °FPassing clouds.12 mph68%29.98 "HgN/A
6:30 PM64 °FPassing clouds.12 mph68%29.98 "HgN/A
6:00 PM66 °FSunny.13 mph60%29.98 "Hg10 mi
5:30 PM68 °FSunny.13 mph60%29.98 "Hg10 mi
5:00 PM68 °FPassing clouds.12 mph56%29.98 "HgN/A
4:30 PM70 °FPassing clouds.9 mph53%29.98 "HgN/A
4:00 PM72 °FPassing clouds.10 mph50%29.98 "HgN/A
3:30 PM72 °FPassing clouds.10 mph50%29.98 "HgN/A
3:00 PM72 °FPassing clouds.7 mph47%29.98 "HgN/A
2:30 PM72 °FPassing clouds.7 mph47%30.01 "HgN/A
2:00 PM72 °FPassing clouds.6 mph47%30.01 "HgN/A
1:30 PM72 °FPassing clouds.6 mph50%30.04 "HgN/A
1:00 PM68 °FPassing clouds.6 mph53%30.04 "HgN/A
12:30 PM68 °FPassing clouds.7 mph53%30.04 "HgN/A
12:00 PM66 °FPassing clouds.7 mph56%30.04 "HgN/A
11:30 AM66 °FPassing clouds.9 mph56%30.04 "HgN/A
11:00 AM64 °FPassing clouds.12 mph68%30.04 "HgN/A
10:30 AM64 °FPassing clouds.12 mph68%30.04 "HgN/A
10:00 AM63 °FPassing clouds.10 mph73%30.04 "HgN/A
9:30 AM61 °FPassing clouds.14 mph77%30.04 "HgN/A
9:00 AM61 °FPassing clouds.13 mph72%30.04 "HgN/A
8:30 AM59 °FPassing clouds.13 mph77%30.01 "HgN/A
8:00 AM57 °FPassing clouds.14 mph82%30.01 "HgN/A
7:30 AM57 °FPassing clouds.13 mph82%30.01 "HgN/A
7:00 AM57 °FPassing clouds.14 mph82%30.01 "HgN/A
6:30 AM57 °FPassing clouds.13 mph82%30.01 "HgN/A
6:00 AM57 °FPassing clouds.13 mph82%30.01 "HgN/A
4:30 AM57 °FPassing clouds.12 mph82%30.01 "HgN/A
4:00 AM57 °FPassing clouds.13 mph82%30.01 "HgN/A
3:30 AM57 °FPassing clouds.12 mph82%30.04 "HgN/A
3:00 AM57 °FPassing clouds.10 mph82%30.04 "HgN/A
2:30 AM57 °FPassing clouds.8 mph82%30.04 "HgN/A
2:00 AM57 °FPassing clouds.9 mph82%30.04 "HgN/A
1:30 AM57 °FPassing clouds.8 mph82%30.07 "HgN/A
1:00 AM59 °FPassing clouds.9 mph77%30.07 "HgN/A
12:30 AM59 °FPassing clouds.10 mph77%30.07 "HgN/A
12:00 AM59 °FPassing clouds.9 mph77%30.07 "HgN/A
11:30 PM
Wed, Oct 7
59 °FClear.7 mph72%30.09 "Hg10 mi
11:00 PM59 °FClear.9 mph72%30.09 "Hg10 mi
10:30 PM59 °FClear.10 mph68%30.09 "Hg10 mi
10:00 PM59 °FClear.9 mph68%30.09 "Hg10 mi
9:30 PM59 °FClear.9 mph63%30.09 "Hg10 mi
9:00 PM61 °FClear.10 mph59%30.09 "Hg10 mi
8:30 PM61 °FClear.9 mph59%30.09 "Hg10 mi
8:00 PM61 °FPassing clouds.9 mph59%30.09 "HgN/A
Weather by CustomWeather, © 2015

See weather overviewHow to use our weather pages